Flag for Cuba Weather past 2 weeks in Santiago de Cuba, Cuba

Now
75 °F

Rain. Partly cloudy.


Feels Like: 75 °F
Forecast: 74 / 90 °F
Wind: 10 mph from Southeast

Location: Santiago De Cuba - Oriente

Current Time: Oct 23, 2014 at 4:04:56 AM

Latest Report: Oct 23, 2014 at 2:52 AM


Visibility: 4 mi

Pressure: 29.89 "Hg

Humidity: 83%

Dew point: 70 °F

Location of Santiago de CubaLocation

Historic Weather in Santiago de Cuba — Graph

°F

Santiago de Cuba temperature yesterday

Maximum temperature yesterday: 88 °F (at 11:51 AM)
Minimum temperature yesterday: 73 °F (at 6:52 AM)
Average temperature yesterday: 81 °F

Past Weeks' High & Low Weather Summary

 TemperatureHumidityPressure
High91 °F (Oct 8, 11:50 AM)89% (Oct 10, 3:51 AM)30.01 "Hg (Oct 10, 3:51 AM)
Low72 °F (Oct 21, 5:51 AM)46% (Oct 9, 12:50 PM)29.80 "Hg (Oct 10, 3:50 PM)
Average81 °F73%29.93 "Hg
* Reported Oct 8 2:51 AM — Oct 23 2:52 AM, Santiago de Cuba, Weather by CustomWeather, © 2014

Note: Actual official high and low records may vary slightly from our data, if they occured in-between our weather recording intervals... More about our weather records

Advertising

Santiago de Cuba weather history for previous 24 hours

 ConditionsComfort  
Time TempWeatherWind HumidityBarometerVisibility
2:52 AM
Oct 23
75 °FRain. Partly cloudy.10 mph83%29.89 "Hg4 mi
1:51 AM77 °FPassing clouds.6 mph83%29.89 "Hg6 mi
12:51 AM79 °FPassing clouds.3 mph79%29.89 "Hg6 mi
11:51 PM
Oct 22
79 °FPassing clouds.5 mph79%29.92 "Hg6 mi
10:51 PM82 °FPassing clouds.3 mph74%29.92 "Hg6 mi
9:52 PM82 °FPassing clouds.3 mph74%29.92 "Hg6 mi
8:52 PM82 °FPassing clouds.6 mph70%29.92 "Hg6 mi
7:54 PM82 °FPassing clouds.6 mph74%29.89 "Hg6 mi
6:50 PM82 °FScattered clouds.6 mph74%29.89 "Hg6 mi
5:51 PM84 °FScattered clouds.6 mph66%29.86 "Hg6 mi
4:52 PM84 °FScattered clouds.8 mph74%29.86 "Hg6 mi
3:53 PM86 °FScattered clouds.9 mph66%29.89 "Hg6 mi
2:51 PM88 °FScattered clouds.12 mph62%29.89 "Hg6 mi
1:51 PM88 °FScattered clouds.13 mph59%29.92 "Hg6 mi
12:50 PM88 °FScattered clouds.13 mph59%29.92 "Hg6 mi
11:51 AM88 °FPassing clouds.13 mph59%29.95 "Hg6 mi
10:50 AM86 °FPassing clouds.8 mph59%29.98 "Hg6 mi
9:55 AM86 °FPassing clouds.8 mph59%29.98 "Hg6 mi
8:51 AM82 °FPassing clouds.2 mph70%29.95 "Hg6 mi
7:52 AM75 °FPassing clouds.3 mph83%29.95 "Hg6 mi
6:52 AM73 °FPassing clouds.5 mph83%29.92 "Hg6 mi
5:53 AM75 °FPassing clouds.3 mph83%29.92 "Hg6 mi
4:51 AM75 °FPassing clouds.5 mph89%29.89 "Hg6 mi
Weather by CustomWeather, © 2014

See weather overviewHow to use our weather pages